Погода в Вольном

Россия / Республика Крым     45°33′52″N   34°18′08″E
темп.,
°C
ветер,
м/с
пор.,
м/с
влажн.,
%
обл.,
%
осадки,
мм/ч
давл.,
гПа
погр.,
м
17 июня, чт
чт1700:00+17сз6127687 0.0 1009285
03:00+17сз51186100 1.2 1009351
06:00+16ссз71398100 18.3 1008570
09:00+17зсз91289100 24.1 1006705
12:00+17зюз91394100 2.8 1006713
15:00+19юз10129396 5.4 1006561
18:00+17ююз121693100 1.3 1007659
21:00+17ю81486100 2.4 1009802
18 июня, пт
пт1800:00+17вюв4688100 0.1 1009149
03:00+17вюв61087100 0.8 1010337
06:00+16вюв61392100 3.1 1010536
09:00+16вюв101692100 22.4 1011688
12:00+22вюв101374100 1.7 10121121
15:00+18вюв81392100 3.7 1013674
18:00+17вюв71291100 5.5 1014400
21:00+18вюв51287100 5.6 1015344
19 июня, сб
сб1900:00+18вюв3987100 0.1 1015186
03:00+17в358522 0.1 1015101
06:00+17в35873 0.0 101599
09:00+23в57760 0.0 1014800
12:00+26всв67620 0.0 10141176
15:00+26всв67615 0.0 10131124
18:00+25всв68689 0.0 1013815
21:00+20св22942 1.8 101237
20 июня, вс
вс2000:00+20ссв359556 2.1 1011120
03:00+20ссв379487 2.7 1010140
06:00+19св379499 2.3 1009204
09:00+24в34760 2.6 1009521
12:00+28вюв446531 0.0 10091200
15:00+27в5469100 3.1 1010818
18:00+25в55690 0.6 1010601
21:00+21всв35850 0.6 101189
21 июня, пн
пн2100:00+20вюв11885 0.0 101111
03:00+19з119081 0.0 101011
06:00+20ссз118998 0.0 101132
09:00+25ссв237064 0.0 1010499
12:00+29ссв44556 0.0 1010915
15:00+29св4456100 0.0 10101096
18:00+27св556971 0.0 1010592
21:00+22всв48785 0.0 1010217